Simultaneous Nadir Overpasses (SNOs) Predictions

Prediction of SNOs between METOP-A and TERRA Satellite Orbit:

Table of predicted SNOs for the next 14.0 days since TLE Epoch: 6/16/2018
Index Date (METOP-A) Time (METOP-A) Lat,Lon (METOP-A) SZA (METOP-A ) Date (TERRA) Time (TERRA) Lat,Lon (TERRA) SZA (TERRA ) Distance(km) Time Diff (sec)
1 06/17/2018 18:50:22 -81.42, 126.83 118.86 06/17/2018 18:51:26 -81.42, 126.77 118.83 1.01 64
2 06/17/2018 19:41:03 81.42, -65.82 61.15 06/17/2018 19:40:53 81.41, -65.89 61.13 1.55 10
3 06/20/2018 14:24:39 -81.42,-166.67 118.91 06/20/2018 14:25:42 -81.42,-166.78 118.89 1.78 63
4 06/20/2018 15:15:20 81.42, 0.66 61.10 06/20/2018 15:15:09 81.41, 0.53 61.07 2.39 11
5 06/23/2018 09:58:55 -81.42,-100.19 118.91 06/23/2018 09:59:57 -81.42,-100.36 118.90 2.77 62
6 06/23/2018 10:49:36 81.42, 67.12 61.09 06/23/2018 10:49:23 81.42, 67.31 61.11 3.32 13
7 06/26/2018 05:33:13 -81.42, -34.13 118.90 06/26/2018 05:34:13 -81.42, -33.97 118.85 2.62 60
8 06/26/2018 06:23:53 81.42, 133.56 61.14 06/26/2018 06:23:39 81.42, 133.68 61.15 1.99 14
9 06/29/2018 01:07:30 -81.42, 32.32 118.80 06/29/2018 01:08:29 -81.42, 32.39 118.76 1.10 59




NCC Satellite Simultaneous Nadir Overpasses (SNOs) Prediction Service
